Year,Month,Day,Hour,Minute,Value (Times are PST for windgust in km/hr)
2008,10,07,00,00,12.90
2008,10,07,00,01,11.30
2008,10,07,00,02,8.10
2008,10,07,00,03,17.70
2008,10,07,00,04,11.30
2008,10,07,00,05,14.50
2008,10,07,00,06,11.30
2008,10,07,00,07,8.10
2008,10,07,00,08,22.50
2008,10,07,00,09,9.60
2008,10,07,00,10,11.30
2008,10,07,00,11,11.30
2008,10,07,00,12,6.40
2008,10,07,00,13,8.10
2008,10,07,00,14,9.60
2008,10,07,00,15,3.20
2008,10,07,00,16,6.40
2008,10,07,00,17,8.10
2008,10,07,00,18,4.80
2008,10,07,00,19,8.10
2008,10,07,00,20,3.20
2008,10,07,00,21,8.10
2008,10,07,00,22,6.40
2008,10,07,00,23,11.30
2008,10,07,00,24,19.30
2008,10,07,00,25,41.80
2008,10,07,00,26,32.20
2008,10,07,00,27,38.60
2008,10,07,00,28,33.80
2008,10,07,00,29,46.70
2008,10,07,00,30,41.80
2008,10,07,00,31,35.40
2008,10,07,00,32,17.70
2008,10,07,00,33,22.50
2008,10,07,00,34,49.90
2008,10,07,00,35,30.60
2008,10,07,00,36,29.00
2008,10,07,00,37,27.40
2008,10,07,00,38,27.40
2008,10,07,00,39,43.50
2008,10,07,00,40,45.10
2008,10,07,00,41,33.80
2008,10,07,00,42,45.10
2008,10,07,00,43,49.90
2008,10,07,00,44,37.00
2008,10,07,00,45,29.00
2008,10,07,00,46,29.00
2008,10,07,00,47,25.70
2008,10,07,00,48,19.30
2008,10,07,00,49,19.30
2008,10,07,00,50,24.20
2008,10,07,00,51,33.80
2008,10,07,00,52,33.80
2008,10,07,00,53,27.40
2008,10,07,00,54,29.00
2008,10,07,00,55,30.60
2008,10,07,00,56,24.20
2008,10,07,00,57,25.70
2008,10,07,00,58,35.40
2008,10,07,00,59,22.50
2008,10,07,01,00,25.70
2008,10,07,01,01,25.70
2008,10,07,01,02,33.80
2008,10,07,01,03,33.80
2008,10,07,01,04,27.40
2008,10,07,01,05,38.60
2008,10,07,01,06,20.90
2008,10,07,01,07,27.40
2008,10,07,01,08,30.60
2008,10,07,01,09,29.00
2008,10,07,01,10,24.20
2008,10,07,01,11,24.20
2008,10,07,01,12,25.70
2008,10,07,01,13,24.20
2008,10,07,01,14,32.20
2008,10,07,01,15,25.70
2008,10,07,01,16,22.50
2008,10,07,01,17,35.40
2008,10,07,01,18,38.60
2008,10,07,01,19,32.20
2008,10,07,01,20,27.40
2008,10,07,01,21,30.60
2008,10,07,01,22,33.80
2008,10,07,01,23,38.60
2008,10,07,01,24,30.60
2008,10,07,01,25,29.00
2008,10,07,01,26,22.50
2008,10,07,01,27,30.60
2008,10,07,01,28,22.50
2008,10,07,01,29,20.90
2008,10,07,01,30,30.60
2008,10,07,01,31,25.70
2008,10,07,01,32,38.60
2008,10,07,01,33,27.40
2008,10,07,01,34,27.40
2008,10,07,01,35,27.40
2008,10,07,01,36,29.00
2008,10,07,01,37,29.00
2008,10,07,01,38,35.40
2008,10,07,01,39,32.20
2008,10,07,01,40,45.10
2008,10,07,01,41,38.60
2008,10,07,01,42,35.40
2008,10,07,01,43,41.80
2008,10,07,01,44,41.80
2008,10,07,01,45,24.20
2008,10,07,01,46,24.20
2008,10,07,01,47,25.70
2008,10,07,01,48,30.60
2008,10,07,01,49,32.20
2008,10,07,01,50,33.80
2008,10,07,01,51,37.00
2008,10,07,01,52,37.00
2008,10,07,01,53,29.00
2008,10,07,01,54,35.40
2008,10,07,01,55,32.20
2008,10,07,01,56,37.00
2008,10,07,01,57,25.70
2008,10,07,01,58,29.00
2008,10,07,01,59,25.70
2008,10,07,02,00,25.70
2008,10,07,02,01,30.60
2008,10,07,02,02,29.00
2008,10,07,02,03,20.90
2008,10,07,02,04,30.60
2008,10,07,02,05,29.00
2008,10,07,02,06,38.60
2008,10,07,02,07,29.00
2008,10,07,02,08,29.00
2008,10,07,02,09,25.70
2008,10,07,02,10,30.60
2008,10,07,02,11,29.00
2008,10,07,02,12,32.20
2008,10,07,02,13,25.70
2008,10,07,02,14,35.40
2008,10,07,02,15,27.40
2008,10,07,02,16,27.40
2008,10,07,02,17,37.00
2008,10,07,02,18,32.20
2008,10,07,02,19,32.20
2008,10,07,02,20,33.80
2008,10,07,02,21,35.40
2008,10,07,02,22,32.20
2008,10,07,02,23,22.50
2008,10,07,02,24,22.50
2008,10,07,02,25,35.40
2008,10,07,02,26,29.00
2008,10,07,02,27,32.20
2008,10,07,02,28,30.60
2008,10,07,02,29,30.60
2008,10,07,02,30,35.40
2008,10,07,02,31,30.60
2008,10,07,02,32,30.60
2008,10,07,02,33,29.00
2008,10,07,02,34,32.20
2008,10,07,02,35,30.60
2008,10,07,02,36,24.20
2008,10,07,02,37,19.30
2008,10,07,02,38,32.20
2008,10,07,02,39,22.50
2008,10,07,02,40,25.70
2008,10,07,02,41,22.50
2008,10,07,02,42,24.20
2008,10,07,02,43,24.20
2008,10,07,02,44,17.70
2008,10,07,02,45,30.60
2008,10,07,02,46,25.70
2008,10,07,02,47,27.40
2008,10,07,02,48,20.90
2008,10,07,02,49,20.90
2008,10,07,02,50,25.70
2008,10,07,02,51,17.70
2008,10,07,02,52,17.70
2008,10,07,02,53,24.20
2008,10,07,02,54,27.40
2008,10,07,02,55,20.90
2008,10,07,02,56,17.70
2008,10,07,02,57,22.50
2008,10,07,02,58,22.50
2008,10,07,02,59,24.20
2008,10,07,03,00,29.00
2008,10,07,03,01,30.60
2008,10,07,03,02,17.70
2008,10,07,03,03,27.40
2008,10,07,03,04,22.50
2008,10,07,03,05,20.90
2008,10,07,03,06,19.30
2008,10,07,03,07,12.90
2008,10,07,03,08,20.90
2008,10,07,03,09,24.20
2008,10,07,03,10,25.70
2008,10,07,03,11,17.70
2008,10,07,03,12,24.20
2008,10,07,03,13,24.20
2008,10,07,03,14,24.20
2008,10,07,03,15,19.30
2008,10,07,03,16,25.70
2008,10,07,03,17,19.30
2008,10,07,03,18,29.00
2008,10,07,03,19,35.40
2008,10,07,03,20,41.80
2008,10,07,03,21,35.40
2008,10,07,03,22,29.00
2008,10,07,03,23,22.50
2008,10,07,03,24,20.90
2008,10,07,03,25,30.60
2008,10,07,03,26,20.90
2008,10,07,03,27,25.70
2008,10,07,03,28,27.40
2008,10,07,03,29,19.30
2008,10,07,03,30,17.70
2008,10,07,03,31,16.10
2008,10,07,03,32,29.00
2008,10,07,03,33,29.00
2008,10,07,03,34,22.50
2008,10,07,03,35,25.70
2008,10,07,03,36,30.60
2008,10,07,03,37,24.20
2008,10,07,03,38,22.50
2008,10,07,03,39,20.90
2008,10,07,03,40,16.10
2008,10,07,03,41,25.70
2008,10,07,03,42,19.30
2008,10,07,03,43,35.40
2008,10,07,03,44,19.30
2008,10,07,03,45,25.70
2008,10,07,03,46,27.40
2008,10,07,03,47,20.90
2008,10,07,03,48,17.70
2008,10,07,03,49,6.40
2008,10,07,03,50,14.50
2008,10,07,03,51,8.10
2008,10,07,03,52,12.90
2008,10,07,03,53,9.60
2008,10,07,03,54,6.40
2008,10,07,03,55,3.20
2008,10,07,03,56,6.40
2008,10,07,03,57,6.40
2008,10,07,03,58,6.40
2008,10,07,03,59,8.10
2008,10,07,04,00,4.80
2008,10,07,04,01,3.20
2008,10,07,04,02,6.40
2008,10,07,04,03,9.60
2008,10,07,04,04,3.20
2008,10,07,04,05,19.30
2008,10,07,04,06,6.40
2008,10,07,04,07,6.40
2008,10,07,04,08,6.40
2008,10,07,04,09,6.40
2008,10,07,04,10,8.10
2008,10,07,04,11,6.40
2008,10,07,04,12,1.60
2008,10,07,04,13,1.60
2008,10,07,04,14,4.80
2008,10,07,04,15,6.40
2008,10,07,04,16,6.40
2008,10,07,04,17,3.20
2008,10,07,04,18,0.00
2008,10,07,04,19,0.00
2008,10,07,04,20,4.80
2008,10,07,04,21,4.80
2008,10,07,04,22,1.60
2008,10,07,04,23,3.20
2008,10,07,04,24,0.00
2008,10,07,04,25,0.00
2008,10,07,04,26,6.40
2008,10,07,04,27,0.00
2008,10,07,04,28,3.20
2008,10,07,04,29,6.40
2008,10,07,04,30,4.80
2008,10,07,04,31,8.10
2008,10,07,04,32,11.30
2008,10,07,04,33,11.30
2008,10,07,04,34,6.40
2008,10,07,04,35,6.40
2008,10,07,04,36,1.60
2008,10,07,04,37,8.10
2008,10,07,04,38,14.50
2008,10,07,04,39,14.50
2008,10,07,04,40,9.60
2008,10,07,04,41,3.20
2008,10,07,04,42,4.80
2008,10,07,04,43,6.40
2008,10,07,04,44,3.20
2008,10,07,04,45,4.80
2008,10,07,04,46,9.60
2008,10,07,04,47,11.30
2008,10,07,04,48,9.60
2008,10,07,04,49,8.10
2008,10,07,04,50,8.10
2008,10,07,04,51,4.80
2008,10,07,04,52,8.10
2008,10,07,04,53,4.80
2008,10,07,04,54,3.20
2008,10,07,04,55,6.40
2008,10,07,04,56,4.80
2008,10,07,04,57,9.60
2008,10,07,04,58,9.60
2008,10,07,04,59,19.30
2008,10,07,05,00,19.30
2008,10,07,05,01,16.10
2008,10,07,05,02,9.60
2008,10,07,05,03,8.10
2008,10,07,05,04,16.10
2008,10,07,05,05,12.90
2008,10,07,05,06,9.60
2008,10,07,05,07,4.80
2008,10,07,05,08,1.60
2008,10,07,05,09,4.80
2008,10,07,05,10,6.40
2008,10,07,05,11,8.10
2008,10,07,05,12,8.10
2008,10,07,05,13,9.60
2008,10,07,05,14,9.60
2008,10,07,05,15,11.30
2008,10,07,05,16,6.40
2008,10,07,05,17,9.60
2008,10,07,05,18,8.10
2008,10,07,05,19,6.40
2008,10,07,05,20,11.30
2008,10,07,05,21,12.90
2008,10,07,05,22,19.30
2008,10,07,05,23,17.70
2008,10,07,05,24,12.90
2008,10,07,05,25,12.90
2008,10,07,05,26,9.60
2008,10,07,05,27,17.70
2008,10,07,05,28,16.10
2008,10,07,05,29,19.30
2008,10,07,05,30,16.10
2008,10,07,05,31,24.20
2008,10,07,05,32,29.00
2008,10,07,05,33,17.70
2008,10,07,05,34,25.70
2008,10,07,05,35,14.50
2008,10,07,05,36,25.70
2008,10,07,05,37,16.10
2008,10,07,05,38,6.40
2008,10,07,05,39,9.60
2008,10,07,05,40,16.10
2008,10,07,05,41,14.50
2008,10,07,05,42,17.70
2008,10,07,05,43,19.30
2008,10,07,05,44,24.20
2008,10,07,05,45,16.10
2008,10,07,05,46,19.30
2008,10,07,05,47,16.10
2008,10,07,05,48,16.10
2008,10,07,05,49,17.70
2008,10,07,05,50,14.50
2008,10,07,05,51,25.70
2008,10,07,05,52,25.70
2008,10,07,05,53,33.80
2008,10,07,05,54,25.70
2008,10,07,05,55,25.70
2008,10,07,05,56,20.90
2008,10,07,05,57,22.50
2008,10,07,05,58,20.90
2008,10,07,05,59,12.90
2008,10,07,06,00,32.20
2008,10,07,06,01,20.90
2008,10,07,06,02,25.70
2008,10,07,06,03,24.20
2008,10,07,06,04,22.50
2008,10,07,06,05,20.90
2008,10,07,06,06,17.70
2008,10,07,06,07,19.30
2008,10,07,06,08,29.00
2008,10,07,06,09,22.50
2008,10,07,06,10,20.90
2008,10,07,06,11,24.20
2008,10,07,06,12,20.90
2008,10,07,06,13,24.20
2008,10,07,06,14,24.20
2008,10,07,06,15,22.50
2008,10,07,06,16,20.90
2008,10,07,06,17,24.20
2008,10,07,06,18,24.20
2008,10,07,06,19,24.20
2008,10,07,06,20,38.60
2008,10,07,06,21,46.70
2008,10,07,06,22,32.20
2008,10,07,06,23,19.30
2008,10,07,06,24,19.30
2008,10,07,06,25,17.70
2008,10,07,06,26,24.20
2008,10,07,06,27,16.10
2008,10,07,06,28,37.00
2008,10,07,06,29,30.60
2008,10,07,06,30,27.40
2008,10,07,06,31,22.50
2008,10,07,06,32,16.10
2008,10,07,06,33,32.20
2008,10,07,06,34,24.20
2008,10,07,06,35,27.40
2008,10,07,06,36,35.40
2008,10,07,06,37,24.20
2008,10,07,06,38,27.40
2008,10,07,06,39,30.60
2008,10,07,06,40,25.70
2008,10,07,06,41,25.70
2008,10,07,06,42,27.40
2008,10,07,06,43,22.50
2008,10,07,06,44,25.70
2008,10,07,06,45,24.20
2008,10,07,06,46,14.50
2008,10,07,06,47,22.50
2008,10,07,06,48,20.90
2008,10,07,06,49,16.10
2008,10,07,06,50,20.90
2008,10,07,06,51,17.70
2008,10,07,06,52,14.50
2008,10,07,06,53,19.30
2008,10,07,06,54,17.70
2008,10,07,06,55,16.10
2008,10,07,06,56,9.60
2008,10,07,06,57,4.80
2008,10,07,06,58,4.80
2008,10,07,06,59,8.10
2008,10,07,07,00,9.60
2008,10,07,07,01,4.80
2008,10,07,07,02,14.50
2008,10,07,07,03,11.30
2008,10,07,07,04,3.20
2008,10,07,07,05,9.60
2008,10,07,07,06,8.10
2008,10,07,07,07,3.20
2008,10,07,07,08,6.40
2008,10,07,07,09,6.40
2008,10,07,07,10,8.10
2008,10,07,07,11,6.40
2008,10,07,07,12,8.10
2008,10,07,07,13,8.10
2008,10,07,07,14,8.10
2008,10,07,07,15,8.10
2008,10,07,07,16,6.40
2008,10,07,07,17,6.40
2008,10,07,07,18,12.90
2008,10,07,07,19,14.50
2008,10,07,07,20,16.10
2008,10,07,07,21,25.70
2008,10,07,07,22,17.70
2008,10,07,07,23,12.90
2008,10,07,07,24,11.30
2008,10,07,07,25,17.70
2008,10,07,07,26,16.10
2008,10,07,07,27,24.20
2008,10,07,07,28,30.60
2008,10,07,07,29,25.70
2008,10,07,07,30,29.00
2008,10,07,07,31,20.90
2008,10,07,07,32,29.00
2008,10,07,07,33,29.00
2008,10,07,07,34,20.90
2008,10,07,07,35,25.70
2008,10,07,07,36,33.80
2008,10,07,07,37,24.20
2008,10,07,07,38,17.70
2008,10,07,07,39,27.40
2008,10,07,07,40,24.20
2008,10,07,07,41,25.70
2008,10,07,07,42,20.90
2008,10,07,07,43,20.90
2008,10,07,07,44,22.50
2008,10,07,07,45,33.80
2008,10,07,07,46,30.60
2008,10,07,07,47,24.20
2008,10,07,07,48,19.30
2008,10,07,07,49,20.90
2008,10,07,07,50,20.90
2008,10,07,07,51,22.50
2008,10,07,07,52,20.90
2008,10,07,07,53,22.50
2008,10,07,07,54,14.50
2008,10,07,07,55,24.20
2008,10,07,07,56,22.50
2008,10,07,07,57,24.20
2008,10,07,07,58,33.80
2008,10,07,07,59,32.20
2008,10,07,08,00,20.90
2008,10,07,08,01,17.70
2008,10,07,08,02,16.10
2008,10,07,08,03,16.10
2008,10,07,08,04,11.30
2008,10,07,08,05,8.10
2008,10,07,08,06,4.80
2008,10,07,08,07,8.10
2008,10,07,08,08,6.40
2008,10,07,08,09,11.30
2008,10,07,08,10,9.60
2008,10,07,08,11,4.80
2008,10,07,08,12,8.10
2008,10,07,08,13,19.30
2008,10,07,08,14,9.60
2008,10,07,08,15,16.10
2008,10,07,08,16,14.50
2008,10,07,08,17,14.50
2008,10,07,08,18,16.10
2008,10,07,08,19,16.10
2008,10,07,08,20,14.50
2008,10,07,08,21,14.50
2008,10,07,08,22,6.40
2008,10,07,08,23,9.60
2008,10,07,08,24,16.10
2008,10,07,08,25,16.10
2008,10,07,08,26,14.50
2008,10,07,08,27,11.30
2008,10,07,08,28,16.10
2008,10,07,08,29,9.60
2008,10,07,08,30,9.60
2008,10,07,08,31,11.30
2008,10,07,08,32,9.60
2008,10,07,08,33,6.40
2008,10,07,08,34,4.80
2008,10,07,08,35,6.40
2008,10,07,08,36,6.40
2008,10,07,08,37,4.80
2008,10,07,08,38,6.40
2008,10,07,08,39,3.20
2008,10,07,08,40,3.20
2008,10,07,08,41,8.10
2008,10,07,08,42,17.70
2008,10,07,08,43,14.50
2008,10,07,08,44,8.10
2008,10,07,08,45,9.60
2008,10,07,08,46,11.30
2008,10,07,08,47,9.60
2008,10,07,08,48,8.10
2008,10,07,08,49,6.40
2008,10,07,08,50,8.10
2008,10,07,08,51,11.30
2008,10,07,08,52,8.10
2008,10,07,08,53,11.30
2008,10,07,08,54,11.30
2008,10,07,08,55,11.30
2008,10,07,08,56,11.30
2008,10,07,08,57,6.40
2008,10,07,08,58,9.60
2008,10,07,08,59,6.40
2008,10,07,09,00,6.40
2008,10,07,09,01,4.80
2008,10,07,09,02,4.80
2008,10,07,09,03,6.40
2008,10,07,09,04,11.30
2008,10,07,09,05,9.60
2008,10,07,09,06,16.10
2008,10,07,09,07,20.90
2008,10,07,09,08,16.10
2008,10,07,09,09,11.30
2008,10,07,09,10,9.60
2008,10,07,09,11,8.10
2008,10,07,09,12,6.40
2008,10,07,09,13,6.40
2008,10,07,09,14,3.20
2008,10,07,09,15,6.40
2008,10,07,09,16,4.80
2008,10,07,09,17,6.40
2008,10,07,09,18,9.60
2008,10,07,09,19,9.60
2008,10,07,09,20,14.50
2008,10,07,09,21,19.30
2008,10,07,09,22,17.70
2008,10,07,09,23,17.70
2008,10,07,09,24,19.30
2008,10,07,09,25,19.30
2008,10,07,09,26,19.30
2008,10,07,09,27,19.30
2008,10,07,09,28,17.70
2008,10,07,09,29,11.30
2008,10,07,09,30,14.50
2008,10,07,09,31,11.30
2008,10,07,09,32,6.40
2008,10,07,09,33,17.70
2008,10,07,09,34,14.50
2008,10,07,09,35,11.30
2008,10,07,09,36,9.60
2008,10,07,09,37,8.10
2008,10,07,09,38,4.80
2008,10,07,09,39,4.80
2008,10,07,09,40,4.80
2008,10,07,09,41,11.30
2008,10,07,09,42,8.10
2008,10,07,09,43,12.90
2008,10,07,09,44,9.60
2008,10,07,09,45,9.60
2008,10,07,09,46,6.40
2008,10,07,09,47,3.20
2008,10,07,09,48,17.70
2008,10,07,09,49,20.90
2008,10,07,09,50,8.10
2008,10,07,09,51,20.90
2008,10,07,09,52,19.30
2008,10,07,09,53,14.50
2008,10,07,09,54,14.50
2008,10,07,09,55,9.60
2008,10,07,09,56,9.60
2008,10,07,09,57,9.60
2008,10,07,09,58,8.10
2008,10,07,09,59,19.30
2008,10,07,10,00,16.10
2008,10,07,10,01,9.60
2008,10,07,10,02,8.10
2008,10,07,10,03,8.10
2008,10,07,10,04,8.10
2008,10,07,10,05,17.70
2008,10,07,10,06,17.70
2008,10,07,10,07,17.70
2008,10,07,10,08,16.10
2008,10,07,10,09,11.30
2008,10,07,10,10,8.10
2008,10,07,10,11,11.30
2008,10,07,10,12,8.10
2008,10,07,10,13,6.40
2008,10,07,10,14,8.10
2008,10,07,10,15,11.30
2008,10,07,10,16,16.10
2008,10,07,10,17,11.30
2008,10,07,10,18,16.10
2008,10,07,10,19,14.50
2008,10,07,10,20,14.50
2008,10,07,10,21,9.60
2008,10,07,10,22,17.70
2008,10,07,10,23,8.10
2008,10,07,10,24,3.20
2008,10,07,10,25,3.20
2008,10,07,10,26,3.20
2008,10,07,10,27,1.60
2008,10,07,10,28,9.60
2008,10,07,10,29,9.60
2008,10,07,10,30,12.90
2008,10,07,10,31,17.70
2008,10,07,10,32,11.30
2008,10,07,10,33,8.10
2008,10,07,10,34,9.60
2008,10,07,10,35,11.30
2008,10,07,10,36,8.10
2008,10,07,10,37,6.40
2008,10,07,10,38,8.10
2008,10,07,10,39,9.60
2008,10,07,10,40,11.30
2008,10,07,10,41,4.80
2008,10,07,10,42,6.40
2008,10,07,10,43,6.40
2008,10,07,10,44,6.40
2008,10,07,10,45,11.30
2008,10,07,10,46,11.30
2008,10,07,10,47,11.30
2008,10,07,10,48,20.90
2008,10,07,10,49,17.70
2008,10,07,10,50,25.70
2008,10,07,10,51,19.30
2008,10,07,10,52,11.30
2008,10,07,10,53,24.20
2008,10,07,10,54,20.90
2008,10,07,10,55,20.90
2008,10,07,10,56,20.90
2008,10,07,10,57,17.70
2008,10,07,10,58,16.10
2008,10,07,10,59,20.90
2008,10,07,11,00,19.30
2008,10,07,11,01,19.30
2008,10,07,11,02,20.90
2008,10,07,11,03,20.90
2008,10,07,11,04,22.50
2008,10,07,11,05,20.90
2008,10,07,11,06,22.50
2008,10,07,11,07,17.70
2008,10,07,11,08,33.80
2008,10,07,11,09,20.90
2008,10,07,11,10,20.90
2008,10,07,11,11,20.90
2008,10,07,11,12,20.90
2008,10,07,11,13,20.90
2008,10,07,11,14,19.30
2008,10,07,11,15,11.30
2008,10,07,11,16,19.30
2008,10,07,11,17,19.30
2008,10,07,11,18,17.70
2008,10,07,11,19,17.70
2008,10,07,11,20,19.30
2008,10,07,11,21,8.10
2008,10,07,11,22,19.30
2008,10,07,11,23,8.10
2008,10,07,11,24,19.30
2008,10,07,11,25,19.30
2008,10,07,11,26,24.20
2008,10,07,11,27,27.40
2008,10,07,11,28,19.30
2008,10,07,11,29,24.20
2008,10,07,11,30,20.90
2008,10,07,11,31,17.70
2008,10,07,11,32,17.70
2008,10,07,11,33,17.70
2008,10,07,11,34,19.30
2008,10,07,11,35,20.90
2008,10,07,11,36,25.70
2008,10,07,11,37,29.00
2008,10,07,11,38,25.70
2008,10,07,11,39,25.70
2008,10,07,11,40,17.70
2008,10,07,11,41,19.30
2008,10,07,11,42,9.60
2008,10,07,11,43,25.70
2008,10,07,11,44,17.70
2008,10,07,11,45,16.10
2008,10,07,11,46,37.00
2008,10,07,11,47,30.60
2008,10,07,11,48,27.40
2008,10,07,11,49,29.00
2008,10,07,11,50,24.20
2008,10,07,11,51,20.90
2008,10,07,11,52,22.50
2008,10,07,11,53,25.70
2008,10,07,11,54,29.00
2008,10,07,11,55,29.00
2008,10,07,11,56,25.70
2008,10,07,11,57,17.70
2008,10,07,11,58,25.70
2008,10,07,11,59,16.10
2008,10,07,12,00,33.80
2008,10,07,12,01,32.20
2008,10,07,12,02,25.70
2008,10,07,12,03,22.50
2008,10,07,12,04,22.50
2008,10,07,12,05,14.50
2008,10,07,12,06,16.10
2008,10,07,12,07,16.10
2008,10,07,12,08,20.90
2008,10,07,12,09,19.30
2008,10,07,12,10,16.10
2008,10,07,12,11,14.50
2008,10,07,12,12,14.50
2008,10,07,12,13,20.90
2008,10,07,12,14,24.20
2008,10,07,12,15,19.30
2008,10,07,12,16,16.10
2008,10,07,12,17,16.10
2008,10,07,12,18,16.10
2008,10,07,12,19,19.30
2008,10,07,12,20,16.10
2008,10,07,12,21,16.10
2008,10,07,12,22,19.30
2008,10,07,12,23,16.10
2008,10,07,12,24,20.90
2008,10,07,12,25,14.50
2008,10,07,12,26,11.30
2008,10,07,12,27,19.30
2008,10,07,12,28,9.60
2008,10,07,12,29,11.30
2008,10,07,12,30,12.90
2008,10,07,12,31,11.30
2008,10,07,12,32,22.50
2008,10,07,12,33,24.20
2008,10,07,12,34,20.90
2008,10,07,12,35,17.70
2008,10,07,12,36,20.90
2008,10,07,12,37,19.30
2008,10,07,12,38,29.00
2008,10,07,12,39,19.30
2008,10,07,12,40,24.20
2008,10,07,12,41,17.70
2008,10,07,12,42,17.70
2008,10,07,12,43,20.90
2008,10,07,12,44,11.30
2008,10,07,12,45,14.50
2008,10,07,12,46,20.90
2008,10,07,12,47,19.30
2008,10,07,12,48,24.20
2008,10,07,12,49,19.30
2008,10,07,12,50,24.20
2008,10,07,12,51,20.90
2008,10,07,12,52,19.30
2008,10,07,12,53,12.90
2008,10,07,12,54,16.10
2008,10,07,12,55,11.30
2008,10,07,12,56,19.30
2008,10,07,12,57,19.30
2008,10,07,12,58,12.90
2008,10,07,12,59,16.10
2008,10,07,13,00,20.90
2008,10,07,13,01,11.30
2008,10,07,13,02,16.10
2008,10,07,13,03,17.70
2008,10,07,13,04,17.70
2008,10,07,13,05,25.70
2008,10,07,13,06,27.40
2008,10,07,13,07,24.20
2008,10,07,13,08,24.20
2008,10,07,13,09,17.70
2008,10,07,13,10,27.40
2008,10,07,13,11,22.50
2008,10,07,13,12,25.70
2008,10,07,13,13,24.20
2008,10,07,13,14,22.50
2008,10,07,13,15,19.30
2008,10,07,13,16,19.30
2008,10,07,13,17,14.50
2008,10,07,13,18,20.90
2008,10,07,13,19,22.50
2008,10,07,13,20,22.50
2008,10,07,13,21,17.70
2008,10,07,13,22,16.10
2008,10,07,13,23,16.10
2008,10,07,13,24,20.90
2008,10,07,13,25,17.70
2008,10,07,13,26,16.10
2008,10,07,13,27,20.90
2008,10,07,13,28,24.20
2008,10,07,13,29,24.20
2008,10,07,13,30,27.40
2008,10,07,13,31,29.00
2008,10,07,13,32,27.40
2008,10,07,13,33,20.90
2008,10,07,13,34,19.30
2008,10,07,13,35,19.30
2008,10,07,13,36,20.90
2008,10,07,13,37,20.90
2008,10,07,13,38,20.90
2008,10,07,13,39,20.90
2008,10,07,13,40,19.30
2008,10,07,13,41,29.00
2008,10,07,13,42,29.00
2008,10,07,13,43,25.70
2008,10,07,13,44,29.00
2008,10,07,13,45,24.20
2008,10,07,13,46,20.90
2008,10,07,13,47,25.70
2008,10,07,13,48,29.00
2008,10,07,13,49,27.40
2008,10,07,13,50,24.20
2008,10,07,13,51,16.10
2008,10,07,13,52,22.50
2008,10,07,13,53,22.50
2008,10,07,13,54,20.90
2008,10,07,13,55,20.90
2008,10,07,13,56,17.70
2008,10,07,13,57,27.40
2008,10,07,13,58,25.70
2008,10,07,13,59,25.70
2008,10,07,14,00,24.20
2008,10,07,14,01,25.70
2008,10,07,14,02,22.50
2008,10,07,14,03,14.50
2008,10,07,14,04,9.60
2008,10,07,14,05,29.00
2008,10,07,14,06,17.70
2008,10,07,14,07,17.70
2008,10,07,14,08,24.20
2008,10,07,14,09,17.70
2008,10,07,14,10,24.20
2008,10,07,14,11,17.70
2008,10,07,14,12,20.90
2008,10,07,14,13,16.10
2008,10,07,14,14,14.50
2008,10,07,14,15,14.50
2008,10,07,14,16,17.70
2008,10,07,14,17,16.10
2008,10,07,14,18,19.30
2008,10,07,14,19,24.20
2008,10,07,14,20,17.70
2008,10,07,14,21,8.10
2008,10,07,14,22,9.60
2008,10,07,14,23,9.60
2008,10,07,14,24,16.10
2008,10,07,14,25,19.30
2008,10,07,14,26,16.10
2008,10,07,14,27,9.60
2008,10,07,14,28,14.50
2008,10,07,14,29,16.10
2008,10,07,14,30,8.10
2008,10,07,14,31,11.30
2008,10,07,14,32,9.60
2008,10,07,14,33,11.30
2008,10,07,14,34,20.90
2008,10,07,14,35,32.20
2008,10,07,14,36,30.60
2008,10,07,14,37,22.50
2008,10,07,14,38,25.70
2008,10,07,14,39,19.30
2008,10,07,14,40,27.40
2008,10,07,14,41,22.50
2008,10,07,14,42,24.20
2008,10,07,14,43,20.90
2008,10,07,14,44,19.30
2008,10,07,14,45,14.50
2008,10,07,14,46,16.10
2008,10,07,14,47,17.70
2008,10,07,14,48,22.50
2008,10,07,14,49,29.00
2008,10,07,14,50,17.70
2008,10,07,14,51,20.90
2008,10,07,14,52,25.70
2008,10,07,14,53,24.20
2008,10,07,14,54,19.30
2008,10,07,14,55,20.90
2008,10,07,14,56,17.70
2008,10,07,14,57,20.90
2008,10,07,14,58,16.10
2008,10,07,14,59,20.90
2008,10,07,15,00,29.00
2008,10,07,15,01,27.40
2008,10,07,15,02,17.70
2008,10,07,15,03,14.50
2008,10,07,15,04,17.70
2008,10,07,15,05,25.70
2008,10,07,15,06,29.00
2008,10,07,15,07,17.70
2008,10,07,15,08,17.70
2008,10,07,15,09,25.70
2008,10,07,15,10,35.40
2008,10,07,15,11,25.70
2008,10,07,15,12,25.70
2008,10,07,15,13,22.50
2008,10,07,15,14,25.70
2008,10,07,15,15,24.20
2008,10,07,15,16,33.80
2008,10,07,15,17,27.40
2008,10,07,15,18,35.40
2008,10,07,15,19,33.80
2008,10,07,15,20,22.50
2008,10,07,15,21,20.90
2008,10,07,15,22,20.90
2008,10,07,15,23,22.50
2008,10,07,15,24,17.70
2008,10,07,15,25,16.10
2008,10,07,15,26,19.30
2008,10,07,15,27,16.10
2008,10,07,15,28,14.50
2008,10,07,15,29,20.90
2008,10,07,15,30,19.30
2008,10,07,15,31,17.70
2008,10,07,15,32,22.50
2008,10,07,15,33,19.30
2008,10,07,15,34,22.50
2008,10,07,15,35,11.30
2008,10,07,15,36,16.10
2008,10,07,15,37,11.30
2008,10,07,15,38,19.30
2008,10,07,15,39,20.90
2008,10,07,15,40,20.90
2008,10,07,15,41,20.90
2008,10,07,15,42,22.50
2008,10,07,15,43,16.10
2008,10,07,15,44,14.50
2008,10,07,15,45,27.40
2008,10,07,15,46,25.70
2008,10,07,15,47,25.70
2008,10,07,15,48,19.30
2008,10,07,15,49,25.70
2008,10,07,15,50,24.20
2008,10,07,15,51,33.80
2008,10,07,15,52,32.20
2008,10,07,15,53,22.50
2008,10,07,15,54,33.80
2008,10,07,15,55,17.70
2008,10,07,15,56,24.20
2008,10,07,15,57,14.50
2008,10,07,15,58,20.90
2008,10,07,15,59,20.90
2008,10,07,16,00,16.10
2008,10,07,16,01,29.00
2008,10,07,16,02,24.20
2008,10,07,16,03,22.50
2008,10,07,16,04,24.20
2008,10,07,16,05,17.70
2008,10,07,16,06,25.70
2008,10,07,16,07,27.40
2008,10,07,16,08,30.60
2008,10,07,16,09,20.90
2008,10,07,16,10,25.70
2008,10,07,16,11,22.50
2008,10,07,16,12,22.50
2008,10,07,16,13,17.70
2008,10,07,16,14,22.50
2008,10,07,16,15,20.90
2008,10,07,16,16,16.10
2008,10,07,16,17,32.20
2008,10,07,16,18,25.70
2008,10,07,16,19,16.10
2008,10,07,16,20,16.10
2008,10,07,16,21,17.70
2008,10,07,16,22,24.20
2008,10,07,16,23,20.90
2008,10,07,16,24,24.20
2008,10,07,16,25,24.20
2008,10,07,16,26,16.10
2008,10,07,16,27,11.30
2008,10,07,16,28,17.70
2008,10,07,16,29,24.20
2008,10,07,16,30,19.30
2008,10,07,16,31,16.10
2008,10,07,16,32,19.30
2008,10,07,16,33,20.90
2008,10,07,16,34,19.30
2008,10,07,16,35,6.40
2008,10,07,16,36,9.60
2008,10,07,16,37,3.20
2008,10,07,16,38,6.40
2008,10,07,16,39,14.50
2008,10,07,16,40,16.10
2008,10,07,16,41,8.10
2008,10,07,16,42,4.80
2008,10,07,16,43,9.60
2008,10,07,16,44,8.10
2008,10,07,16,45,8.10
2008,10,07,16,46,3.20
2008,10,07,16,47,3.20
2008,10,07,16,48,8.10
2008,10,07,16,49,6.40
2008,10,07,16,50,8.10
2008,10,07,16,51,6.40
2008,10,07,16,52,6.40
2008,10,07,16,53,8.10
2008,10,07,16,54,6.40
2008,10,07,16,55,11.30
2008,10,07,16,56,17.70
2008,10,07,16,57,11.30
2008,10,07,16,58,8.10
2008,10,07,16,59,3.20
2008,10,07,17,00,8.10
2008,10,07,17,01,6.40
2008,10,07,17,02,12.90
2008,10,07,17,03,11.30
2008,10,07,17,04,20.90
2008,10,07,17,05,16.10
2008,10,07,17,06,19.30
2008,10,07,17,07,19.30
2008,10,07,17,08,16.10
2008,10,07,17,09,12.90
2008,10,07,17,10,8.10
2008,10,07,17,11,17.70
2008,10,07,17,12,8.10
2008,10,07,17,13,9.60
2008,10,07,17,14,8.10
2008,10,07,17,15,20.90
2008,10,07,17,16,12.90
2008,10,07,17,17,9.60
2008,10,07,17,18,19.30
2008,10,07,17,19,19.30
2008,10,07,17,20,8.10
2008,10,07,17,21,6.40
2008,10,07,17,22,8.10
2008,10,07,17,23,19.30
2008,10,07,17,24,6.40
2008,10,07,17,25,9.60
2008,10,07,17,26,9.60
2008,10,07,17,27,9.60
2008,10,07,17,28,8.10
2008,10,07,17,29,4.80
2008,10,07,17,30,8.10